Corona, CA

Top Results: Twin Peaks 50 50 KM

Share
Rank Year Name Category Time
1 2007 Michelle Barton F 30-39 4:26:14
2 2007 Bill Parks M 40-49 4:44:19
3 2007 Stephen Rombach M 40-49 4:54:00
4 2007 Scott White M 40-49 5:07:40
5 2007 William Ramsey M 50-59 5:14:45
6 2007 Francisco Fabian M 50-59 5:20:18
7 2007 Eric Vaughan M 40-49 5:21:40
8 2007 Julian Jamison M 30-39 5:27:00
9 2007 Elaina McMahon F 40-49 5:27:08
10 2007 Paul Schuster M 50-59 5:27:36
11 2007 Eric Kosters M 40-49 5:30:37
12 2007 Marisa Willment F 40-49 5:31:11
13 2007 Dennis Ladnier M 40-49 5:31:46
14 2015 Dean Dobberteen M 40-49 5:33:20
15 2008 Jonathan Mitchell M 30-39 5:35:30
16 2010 Evan Hone M 30-39 5:39:00
17 2007 Charlie Nickell M 40-49 5:41:04
18 2008 Andy Salinger M 30-39 5:41:06
19 2007 Steve Merrilees M 50-59 5:43:36
20 2016 Sam Bosworth M 30-39 5:43:41
21 2010 Dean Dobberteen M 30-39 5:46:54
22 2008 Robert Rust M 40-49 5:48:48
23 2008 Dean Dobberteen M 30-39 5:49:47
24 2015 Steve Livingston M 40-49 5:50:09
25 2010 Alison Wenster F 30-39 5:52:53
26 2015 Eric Hammann M 40-49 5:54:29
27 2015 Aaron Flynn M 30-39 5:56:49
28 2007 William Patterson M 40-49 5:57:39
29 2010 Danny Westergaard M 50-59 5:59:07
30 2010 Charles Corfield M 50-59 6:02:37
31 2017 Barry Kyler M 40-49 6:03:54
32 2007 Larry Gates M 40-49 6:03:58
33 2007 Martin Stein M 30-39 6:04:15
34 2007 Jeff Smith M 30-39 6:05:07
35 2007 Dina Aman F 30-39 6:07:10
36 2007 Fidel Diaz M 50-59 6:07:11
37 2016 Rocco Addante M 30-39 6:11:31
38 2007 Darryl Keeports M 40-49 6:11:34
39 2015 Daniel Roy M 20-29 6:12:05
40 2007 Lisa Kuecker F 40-49 6:15:00
41 2014 Michael Becker M 50-59 6:16:12
42 2008 Steve Fry M 50-59 6:16:44
43 2010 John Marciari M 30-39 6:17:57
44 2007 Jud Oshier M 50-59 6:18:17
45 2010 Jody Chase F 40-49 6:24:55
46 2008 Michelle Barton F 30-39 6:26:35
47 2008 Keira Henninger F 30-39 6:26:35
48 2010 Richard Cheatham M 20-29 6:26:54
49 2007 Jennifer Todd F 40-49 6:27:06
50 2007 Deena Kiley F 40-49 6:27:06
51 2007 Don Bergeron M 30-39 6:27:39
52 2011 Ryan Buetzer M 20-29 6:28:00
53 2008 Dave Milsom M 30-39 6:28:36
54 2014 John Morey M 30-39 6:28:41
55 2014 Timothy Hendricks M 20-29 6:32:25
56 2008 Robert Garro M 40-49 6:35:15
57 2008 Robert Schipsi M 40-49 6:35:23
58 2010 Tracy Dimino F 30-39 6:35:30
59 2007 Pete Vara M 30-39 6:36:34
60 2015 Ulises Reyes M 40-49 6:38:44
61 2007 Kerry Gorman M 30-39 6:39:25
62 2007 Tom Nielsen M 40-49 6:40:18
63 2007 Tracy Moore M 40-49 6:40:18
64 2007 Nancy Williams F 30-39 6:40:27
65 2007 Thomas Kuerten M 40-49 6:41:13
66 2014 Gisele Schaaf F 20-29 6:41:48
67 2007 Kim French F 30-39 6:43:00
68 2015 Timothy Hendricks M 30-39 6:43:09
69 2007 Beth Dressel F 30-39 6:43:24
70 2015 Artem Lebedev M 30-39 6:44:52
71 2007 Mark Ryne M 50-59 6:45:18
72 2010 David Christof M 30-39 6:47:32
73 2010 Damian Michaels M 30-39 6:49:27
74 2015 Michelle Racicot F 50-59 6:50:14
75 2007 Ron Byrum M 40-49 6:50:37
76 2007 Chris Haines M 40-49 6:50:38
77 2016 Angel Varela M 20-29 6:51:43
78 2014 Juan Rojo M 40-49 6:52:57
79 2007 Junette McCarthy F 40-49 6:54:02
80 2010 Paul Brunner M 40-49 6:56:35
81 2008 Robert Crockett M 50-59 6:56:45
82 2014 Theresa Uhrig F 40-49 6:58:05
83 2007 Karen Mohr F 40-49 6:58:09
84 2015 Keira Henninger F 30-39 6:59:41
85 2010 Honey Albrecht F 50-59 7:02:05
86 2008 Steve Merrilees M 50-59 7:02:40
87 2008 Maya Kass F 30-39 7:03:50
88 2012 Scott Templin M 50-59 7:04:42
89 2015 Diana Pacheco F 40-49 7:06:06
90 2012 Joe Ward M 30-39 7:06:42
91 2017 Nicolas Perou M 30-39 7:07:34
92 2015 Mike Frey M 30-39 7:09:38
93 2007 Monique Fletcher F 20-29 7:11:22
94 2007 Kevin Fletcher M 30-39 7:11:22
95 2007 Paul Avedian M 40-49 7:11:40
96 2010 Sara Bozorg F 20-29 7:12:38
97 2011 Maria Madueno F 50-59 7:14:00
98 2016 Deanna Flores F 20-29 7:14:37
99 2008 Matt Meyer M 20-29 7:15:03
100 2007 Heather Picquelle F 30-39 7:17:10